Terminal Aerodrome Forecast
Issued by NWS Cleveland, OH

Home | Current Version | Previous Version | Text Only | Print | Product List | Glossary Off
Versions: 1 2 3 4 5 6 7 8 9 10 11 12 13 14 15 16 17 18 19

000
FTUS41 KCLE 141700
TAFCAK
TAF
KCAK 141737Z 1418/1518 18003KT P6SM SCT040 BKN250
     FM151500 23006KT P6SM BKN040 OVC120=

USA.gov is the U.S. government's official web portal to all federal, state and local government web resources and services.